Regional Weather Roundup
Issued by NWS

Home | Current Version | Previous Version | Text Only | Print | Product List | Glossary On
Versions: 1 2 3 4 5 6 7 8 9 10 11 12 13 14 15 16 17 18 19 20 21 22 23 24 25 26 27 28 29 30 31 32 33 34 35 36 37 38 39 40 41 42 43 44 45 46 47 48 49 50
000
ASUS43 KDTX 280801
RWRMI
MICHIGAN HOURLY REGIONAL WEATHER ROUNDUP
NATIONAL WEATHER SERVICE DETROIT/PONTIAC MI
400 AM EDT SUN AUG 28 2016

NOTE: "FAIR" INDICATES FEW OR NO CLOUDS BELOW 12,000 FEET WITH NO
SIGNIFICANT WEATHER AND/OR OBSTRUCTION TO VISIBILITY.

MIZ047>049-052>055-059>063-066>070-074>076-081>083-280900-
SOUTHEAST LOWER MICHIGAN

CITY           SKY/WX    TMP DP  RH WIND       PRES   REMARKS
ADRIAN         FOG       70  70 100 CALM      30.15R VSB 1/4
ALMA           CLOUDY    70  70 100 W3        30.11S FOG
ANN ARBOR      CLOUDY    71  71 100 S6        30.14R FOG
CARO           PTCLDY    69  69  98 S5        30.10S FOG
DETROIT CITY   CLOUDY    71  71 100 VRB3      30.14S FOG
DETROIT        FOG       70  70 100 W3        30.14S VSB 1/4
FLINT          MOCLDY    74  70  87 S7        30.12S
GROSSE ILE     PTCLDY    71  69  96 CALM      30.13S FOG
HILLSDALE      CLEAR     71  69  93 SW3       30.15S
HOWELL         MOCLDY    71  70  98 S3        30.13S FOG

CITY           SKY/WX    TMP DP  RH WIND       PRES   REMARKS
JACKSON        CLEAR     71  71 100 SW5       30.14S
LAMBERTVILLE   CLOUDY    68  67  94 CALM      30.15R FOG
LANSING        PTCLDY    71  69  93 S5        30.13R
LAPEER         FAIR      68  67  97 CALM      30.12F FOG
MASON          PTCLDY    70  70 100 CALM      30.13S FOG
MONROE         FOG       67  67 100 CALM      30.14R VSB 1/4
MT. CLEMENS    CLOUDY    71  71 100 SW3       30.12S
PONTIAC        CLOUDY    72  70  93 SW3       30.13S FOG
PORT HURON     CLOUDY    68  68 100 SW3       30.13S FOG
TRI CITIES     PTCLDY    71  71 100 SW6       30.10S FOG
MIDLAND        FAIR      70  70  99 CALM      30.09S FOG
TROY           CLOUDY    73  70  91 SW3       30.15S FOG
SAGINAW HB     PTCLDY    70  70 100 S6        30.09S FOG
$$
MIZ043>046-050>051-056>058-064>065-071>073-077>080-280900-
SOUTHWEST LOWER MICHIGAN

CITY           SKY/WX    TMP DP  RH WIND       PRES   REMARKS
BATTLE CREEK   MOCLDY    70  70 100 SW6       30.14R
BENTON HARBOR  PTCLDY    73  70  90 CALM      30.11R FOG
BIG RAPIDS     CLOUDY    72  71  96 W6        30.11R
COLDWATER      MOCLDY    71  71 100 CALM      30.14R
FREMONT        CLOUDY    70  69  98 W3        30.11R FOG
HOLLAND        CLOUDY    74  71  91 W6        30.12R
GRAND RAPIDS   MOCLDY    72  70  93 SW5       30.12R
IONIA          FAIR      71  70  96 SW6       30.11R
KALAMAZOO      PTCLDY    73  69  87 S6        30.13R
LUDINGTON      CLOUDY    67  67  98 W5        30.10S
MARSHALL       PTCLDY    72  72 100 CALM      30.13S
MOUNT PLEASANT CLOUDY    71  70  97 SW3       30.09S
MUSKEGON       CLOUDY    73  71  93 NW6       30.11R
SOUTH HAVEN    PTCLDY    74  73  97 CALM      30.11R FOG
$$
MIZ016>042-280900-
NORTHERN LOWER MICHIGAN

CITY           SKY/WX    TMP DP  RH WIND       PRES   REMARKS
ALPENA         CLOUDY    69  66  90 SW8       30.07S
BEAVER ISLAND  CLOUDY    65  64  96 W6        30.08R
BELLAIRE       CLOUDY    70  67  90 CALM      30.08R
CADILLAC       CLOUDY    69  67  95 W5        30.10S
CHARLEVOIX     CLOUDY    68  67  97 W13       30.10R
FRANKFORT      CLOUDY    68  64  89 W7        30.10R
GAYLORD        CLOUDY    69  65  86 W10       30.09R
GRAYLING       CLOUDY    70  68  95 CALM      30.10S
HARBOR SPRINGS CLOUDY    69  67  94 W6G16     30.07R
HOUGHTON LAKE  CLOUDY    69  68  96 SW3       30.10S
MANISTEE       CLOUDY    68  66  93 W7        30.10R
OSCODA         LGT RAIN  71  70  98 CALM      30.08S
PELLSTON       CLOUDY    69  65  86 W9        30.06R
ROGERS CITY    MOCLDY    69  66  91 SW6       30.06S
TRAVERSE CITY  CLOUDY    70  67  90 SW3       30.07S
$$
MIZ007>008-015-280900-
EASTERN UPPER MICHIGAN

CITY           SKY/WX    TMP DP  RH WIND       PRES   REMARKS
KINROSS        FOG       67  66  97 W7        30.05R VSB 1
MACKINAC ISLAN CLOUDY    67  67 100 W9G18     30.05R
NEWBERRY       CLOUDY    62  61  97 W9        30.07R
S. S. MARIE    CLOUDY    67  67 100 W6        30.03R FOG
$$
MIZ004>006-011>014-085-280900-
CENTRAL UPPER MICHIGAN

CITY           SKY/WX    TMP DP  RH WIND       PRES   REMARKS
MANISTIQUE     CLOUDY    63  61  93 W3        30.07R
ESCANABA       PTCLDY    62  61  96 W5        30.08S
MENOMINEE      CLOUDY   N/A N/A N/A W3        30.10R
SAWYER-GWINN   MOCLDY    60  58  95 W3        30.09R
$$
MIZ001>003-009>011-084-280900-
WESTERN UPPER MICHIGAN

CITY           SKY/WX    TMP DP  RH WIND       PRES   REMARKS
IRON MOUNTAIN  CLOUDY    62  59  90 CALM      30.08R
HOUGHTON       CLOUDY    63  59  87 W5        30.05S
IRONWOOD       CLOUDY    61  61 100 W5        30.10R
$$

ABBREVIATIONS USED IN REMARKS
   TC - TEMPERATURE IN CELSIUS
  WCI - WIND CHILL INDEX
   HX - HEAT INDEX
  VSB - VISIBILITY





USA.gov is the U.S. government's official web portal to all federal, state and local government web resources and services.